Weather History for KMKL - January, 2014

Change the Weather History Date:

Friday, January 17, 2014

  Actual Average Record
Temperature  
Mean Temperature 29 °F 38 °F  
Max Temperature 40 °F 48 °F 72 °F (2012)
Min Temperature 18 °F 28 °F -6 °F (1982)
Degree Days  
Heating Degree Days 36 27  
Month to date heating degree days 516 459  
Since 1 July heating degree days 2073 1877  
Cooling Degree Days 0 0  
Month to date cooling degree days 0 0  
Year to date cooling degree days 0 0  
Moisture  
Dew Point 16 °F    
Average Humidity 59    
Maximum Humidity 78    
Minimum Humidity 39    
Precipitation  
Precipitation 0.00 in 0.13 in 1.62 in (1990)
Month to date precipitation 3.01 2.17  
Year to date precipitation 3.01 2.17  
Snow  
Snow 0.00 in 0.10 in 0.40 in (1984)
Month to date snowfall T 1.3  
Since 1 July snowfall T 1.6  
Snow Depth 0.00 in    
Sea Level Pressure  
Sea Level Pressure 30.08 in    
Wind  
Wind Speed 10 mph (WNW)    
Max Wind Speed 26 mph    
Max Gust Speed 35 mph    
Visibility 10 miles    
Events      
T = Trace of Precipitation, MM = Missing Value Source: NWS Daily Summary

Daily Weather History Graph

Daily Weather History Graph

Search for Another Location

Airport or City:

Trip Planner

Search our weather history database for the weather conditions in past years. The results will help you decide how hot, cold, wet, or windy it might be!

Date:

Astronomy

Jan. 17, 2014 Rise Set
Actual Time 7:03 AM CST 5:07 PM CST
Civil Twilight 6:36 AM CST 5:35 PM CST
Nautical Twilight 6:05 AM CST 6:06 PM CST
Astronomical Twilight 5:34 AM CST 6:37 PM CST
Moon 6:49 PM CST (1/17) 7:36 AM CST (1/17)
Length of Visible Light 10h 59m
Length of Day
10h 04m
Full, 98% of the Moon is Illuminated
Jan 17
Full
Jan 23
Last Quarter
Jan 30
New
Feb 6
First Quarter
Feb 14
Full

Hourly Weather History & Observations

Time (CST) Temp. Windchill Dew Point Humidity Pressure Visibility Wind Dir Wind Speed Gust Speed Precip Events Conditions
12:53 AM 36.0 °F 29.0 °F 27.0 °F 70% 29.90 in 10.0 mi SW 9.2 mph - N/A   Partly Cloudy
1:53 AM 39.0 °F 31.4 °F 26.1 °F 60% 29.91 in 10.0 mi West 12.7 mph 20.7 mph N/A   Clear
2:53 AM 37.9 °F 32.1 °F 24.1 °F 57% 29.91 in 10.0 mi WNW 8.1 mph - N/A   Scattered Clouds
3:53 AM 37.0 °F 28.5 °F 24.1 °F 59% 29.93 in 10.0 mi WNW 13.8 mph - N/A   Partly Cloudy
4:53 AM 35.1 °F 27.9 °F 25.0 °F 67% 29.96 in 10.0 mi WNW 9.2 mph - N/A   Partly Cloudy
5:53 AM 30.9 °F 25.2 °F 24.1 °F 76% 29.99 in 10.0 mi WNW 5.8 mph - N/A   Clear
6:53 AM 30.0 °F 20.0 °F 19.9 °F 66% 30.02 in 10.0 mi NNW 12.7 mph - N/A   Clear
7:53 AM 30.0 °F 17.9 °F 14.0 °F 51% 30.06 in 10.0 mi NW 18.4 mph 28.8 mph N/A   Clear
8:53 AM 30.0 °F 16.9 °F 12.0 °F 47% 30.09 in 10.0 mi NW 21.9 mph 34.5 mph N/A   Clear
9:53 AM 28.9 °F 15.1 °F 9.0 °F 43% 30.12 in 10.0 mi WNW 23.0 mph 32.2 mph N/A   Partly Cloudy
10:53 AM 30.9 °F 19.8 °F 10.0 °F 42% 30.13 in 10.0 mi NW 16.1 mph 24.2 mph N/A   Scattered Clouds
11:53 AM 30.9 °F 19.8 °F 10.9 °F 43% 30.12 in 10.0 mi West 16.1 mph 21.9 mph N/A   Overcast
12:53 PM 30.0 °F 19.5 °F 12.0 °F 47% 30.10 in 10.0 mi WNW 13.8 mph 20.7 mph N/A   Overcast
1:53 PM 30.0 °F 19.1 °F 14.0 °F 51% 30.11 in 10.0 mi WNW 15.0 mph - N/A   Overcast
2:53 PM 30.9 °F 22.8 °F 14.0 °F 50% 30.12 in 10.0 mi West 9.2 mph - 0.00 in   Overcast
3:53 PM 32.0 °F 22.5 °F 10.9 °F 42% 30.14 in 10.0 mi WNW 12.7 mph - N/A   Overcast
4:53 PM 30.9 °F 23.5 °F 12.9 °F 47% 30.15 in 10.0 mi WNW 8.1 mph - N/A   Overcast
5:53 PM 30.9 °F 23.5 °F 12.9 °F 47% 30.16 in 10.0 mi NW 8.1 mph - N/A   Overcast
6:53 PM 30.0 °F 24.1 °F 12.9 °F 49% 30.17 in 10.0 mi NNW 5.8 mph - N/A   Overcast
7:53 PM 27.0 °F 21.6 °F 12.9 °F 56% 30.18 in 10.0 mi NW 4.6 mph - N/A   Mostly Cloudy
8:53 PM 21.9 °F - 12.9 °F 68% 30.19 in 10.0 mi Calm Calm - N/A   Clear
9:53 PM 23.0 °F - 12.9 °F 65% 30.19 in 10.0 mi Calm Calm - N/A   Clear
10:53 PM 19.9 °F - 12.9 °F 74% 30.19 in 10.0 mi Calm Calm - N/A   Clear
11:53 PM 19.0 °F 12.3 °F 12.9 °F 77% 30.19 in 10.0 mi SSW 4.6 mph - N/A   Clear